• Em Portugal
  • Lista de países
  • Para 7 dias
  • Temperatura da água
  • Mapas de satélite
  • Mapa do tempo
  • Widgets de tempo
  • user-avatar
    Iniciar Sessão

    Previsão horária em Goiania

    Hoje, 17 Julho, Terça-feira

    Tempo Temperatura Precipitação Vento Pressão Humidade
    00:00 +20°C° 0 mm 2 m/s 702 mmHg 56%
    01:00 +20°C° 0 mm 2 m/s 702 mmHg 58%
    02:00 +19°C° 0 mm 2 m/s 702 mmHg 60%
    03:00 +19°C° 0 mm 2 m/s 702 mmHg 63%
    04:00 +19°C° 0 mm 2 m/s 702 mmHg 64%
    05:00 +18°C° 0 mm 2 m/s 702 mmHg 65%
    06:00 +18°C° 0 mm 3 m/s 702 mmHg 65%
    07:00 +20°C° 0 mm 3 m/s 702 mmHg 61%
    08:00 +22°C° 0 mm 4 m/s 703 mmHg 56%
    09:00 +25°C° 0 mm 5 m/s 703 mmHg 51%
    10:00 +26°C° 0 mm 5 m/s 703 mmHg 46%
    11:00 +28°C° 0 mm 4 m/s 703 mmHg 42%
    12:00 +30°C° 0 mm 4 m/s 704 mmHg 38%
    13:00 +30°C° 0 mm 4 m/s 703 mmHg 36%
    14:00 +31°C° 0 mm 3 m/s 703 mmHg 34%
    15:00 +31°C° 0 mm 3 m/s 702 mmHg 32%
    16:00 +30°C° 0 mm 3 m/s 702 mmHg 36%
    17:00 +28°C° 0 mm 2 m/s 701 mmHg 40%
    18:00 +26°C° 0 mm 2 m/s 701 mmHg 44%
    19:00 +26°C° 0 mm 2 m/s 701 mmHg 47%
    20:00 +25°C° 0 mm 2 m/s 701 mmHg 49%
    21:00 +24°C° 0 mm 3 m/s 702 mmHg 51%
    22:00 +24°C° 0 mm 3 m/s 702 mmHg 53%
    23:00 +22°C° 0 mm 3 m/s 702 mmHg 55%

    Amanhã, 18 Julho, Quarta-feira

    Tempo Temperatura Precipitação Vento Pressão Humidade
    00:00 +22°C° 0 mm 3 m/s 702 mmHg 57%
    01:00 +21°C° 0 mm 3 m/s 702 mmHg 59%
    02:00 +21°C° 0 mm 3 m/s 701 mmHg 61%
    03:00 +20°C° 0 mm 3 m/s 701 mmHg 63%
    04:00 +20°C° 0 mm 3 m/s 701 mmHg 64%
    05:00 +20°C° 0 mm 4 m/s 701 mmHg 65%
    06:00 +20°C° 0 mm 4 m/s 701 mmHg 66%
    07:00 +21°C° 0 mm 4 m/s 702 mmHg 62%
    08:00 +22°C° 0 mm 5 m/s 703 mmHg 59%
    09:00 +23°C° 0 mm 5 m/s 703 mmHg 55%
    10:00 +26°C° 0 mm 5 m/s 703 mmHg 49%
    11:00 +28°C° 0 mm 5 m/s 703 mmHg 44%
    12:00 +30°C° 0 mm 4 m/s 703 mmHg 38%
    13:00 +30°C° 0 mm 4 m/s 702 mmHg 36%
    14:00 +31°C° 0 mm 3 m/s 702 mmHg 33%
    15:00 +33°C° 0 mm 3 m/s 701 mmHg 31%
    16:00 +30°C° 0 mm 2 m/s 701 mmHg 35%
    17:00 +28°C° 0 mm 2 m/s 700 mmHg 39%
    18:00 +26°C° 0 mm 2 m/s 700 mmHg 43%
    19:00 +26°C° 0 mm 2 m/s 700 mmHg 46%
    20:00 +25°C° 0 mm 2 m/s 701 mmHg 49%
    21:00 +24°C° 0 mm 3 m/s 701 mmHg 52%
    22:00 +24°C° 0 mm 3 m/s 701 mmHg 53%
    23:00 +22°C° 0 mm 3 m/s 701 mmHg 53%

    Depois de amanhã, 19 Julho, Quinta-feira

    Tempo Temperatura Precipitação Vento Pressão Humidade
    00:00 +22°C° 0 mm 4 m/s 702 mmHg 54%
    01:00 +21°C° 0 mm 4 m/s 701 mmHg 53%
    02:00 +21°C° 0 mm 4 m/s 701 mmHg 51%
    03:00 +21°C° 0 mm 3 m/s 701 mmHg 50%
    04:00 +20°C° 0 mm 4 m/s 701 mmHg 48%
    05:00 +20°C° 0 mm 4 m/s 701 mmHg 47%
    06:00 +19°C° 0 mm 4 m/s 700 mmHg 46%
    07:00 +20°C° 0 mm 4 m/s 701 mmHg 46%
    08:00 +22°C° 0 mm 5 m/s 702 mmHg 46%
    09:00 +23°C° 0 mm 6 m/s 703 mmHg 47%
    10:00 +26°C° 0 mm 5 m/s 703 mmHg 42%
    11:00 +28°C° 0 mm 5 m/s 703 mmHg 38%
    12:00 +30°C° 0 mm 4 m/s 703 mmHg 33%
    13:00 +30°C° 0 mm 4 m/s 702 mmHg 30%
    14:00 +31°C° 0 mm 3 m/s 701 mmHg 27%
    15:00 +33°C° 0 mm 3 m/s 701 mmHg 24%
    16:00 +30°C° 0 mm 2 m/s 700 mmHg 28%
    17:00 +28°C° 0 mm 2 m/s 700 mmHg 32%
    18:00 +26°C° 0 mm 2 m/s 700 mmHg 36%
    19:00 +25°C° 0 mm 2 m/s 700 mmHg 38%
    20:00 +24°C° 0 mm 2 m/s 700 mmHg 41%
    21:00 +22°C° 0 mm 3 m/s 701 mmHg 43%
    22:00 +22°C° 0 mm 3 m/s 701 mmHg 46%
    23:00 +21°C° 0 mm 3 m/s 701 mmHg 49%

    20 Julho, Sexta-feira

    Tempo Temperatura Precipitação Vento Pressão Humidade
    00:00 +21°C° 0 mm 3 m/s 701 mmHg 52%
    01:00 +20°C° 0 mm 3 m/s 700 mmHg 55%
    02:00 +20°C° 0 mm 3 m/s 700 mmHg 58%
    03:00 +20°C° 0 mm 3 m/s 700 mmHg 62%
    04:00 +19°C° 0 mm 3 m/s 700 mmHg 63%
    05:00 +19°C° 0 mm 3 m/s 700 mmHg 64%
    06:00 +19°C° 0 mm 3 m/s 700 mmHg 65%
    07:00 +21°C° 0 mm 3 m/s 701 mmHg 60%
    08:00 +22°C° 0 mm 4 m/s 702 mmHg 54%
    09:00 +25°C° 0 mm 5 m/s 703 mmHg 49%
    10:00 +27°C° 0 mm 4 m/s 703 mmHg 43%
    11:00 +29°C° 0 mm 4 m/s 703 mmHg 37%
    12:00 +30°C° 0 mm 3 m/s 702 mmHg 31%
    13:00 +31°C° 0 mm 3 m/s 702 mmHg 29%
    14:00 +32°C° 0 mm 2 m/s 701 mmHg 26%
    15:00 +32°C° 0 mm 2 m/s 700 mmHg 24%
    16:00 +30°C° 0 mm 2 m/s 700 mmHg 28%
    17:00 +28°C° 0 mm 2 m/s 700 mmHg 31%
    18:00 +27°C° 0 mm 1 m/s 700 mmHg 35%
    19:00 +26°C° 0 mm 1 m/s 700 mmHg 38%
    20:00 +24°C° 0 mm 2 m/s 701 mmHg 40%
    21:00 +23°C° 0 mm 2 m/s 701 mmHg 43%
    22:00 +23°C° 0 mm 2 m/s 701 mmHg 45%
    23:00 +21°C° 0 mm 2 m/s 701 mmHg 48%

    21 Julho, Sábado

    Tempo Temperatura Precipitação Vento Pressão Humidade
    00:00 +21°C° 0 mm 2 m/s 701 mmHg 50%
    01:00 +20°C° 0 mm 2 m/s 701 mmHg 51%
    02:00 +20°C° 0 mm 2 m/s 700 mmHg 52%
    03:00 +19°C° 0 mm 2 m/s 700 mmHg 53%
    04:00 +19°C° 0 mm 2 m/s 700 mmHg 52%
    05:00 +19°C° 0 mm 2 m/s 701 mmHg 51%
    06:00 +19°C° 0 mm 2 m/s 701 mmHg 50%
    07:00 +21°C° 0 mm 3 m/s 702 mmHg 47%
    08:00 +22°C° 0 mm 3 m/s 702 mmHg 44%
    09:00 +25°C° 0 mm 4 m/s 703 mmHg 41%
    10:00 +27°C° 0 mm 3 m/s 703 mmHg 37%
    11:00 +30°C° 0 mm 2 m/s 703 mmHg 32%
    12:00 +32°C° 0 mm 2 m/s 703 mmHg 27%
    13:00 +32°C° 0 mm 2 m/s 702 mmHg 25%
    14:00 +33°C° 0 mm 1 m/s 701 mmHg 24%
    15:00 +33°C° 0 mm 1 m/s 701 mmHg 22%
    16:00 +31°C° 0 mm 1 m/s 700 mmHg 26%
    17:00 +29°C° 0 mm 1 m/s 700 mmHg 29%
    18:00 +27°C° 0 mm 2 m/s 700 mmHg 33%
    19:00 +26°C° 0 mm 2 m/s 700 mmHg 35%
    20:00 +25°C° 0 mm 2 m/s 700 mmHg 37%
    21:00 +24°C° 0 mm 2 m/s 701 mmHg 39%
    22:00 +23°C° 0 mm 2 m/s 701 mmHg 41%
    23:00 +23°C° 0 mm 2 m/s 701 mmHg 43%

    22 Julho, Domingo

    Tempo Temperatura Precipitação Vento Pressão Humidade
    00:00 +21°C° 0 mm 2 m/s 700 mmHg 45%
    01:00 +21°C° 0 mm 2 m/s 700 mmHg 47%
    02:00 +20°C° 0 mm 2 m/s 700 mmHg 50%
    03:00 +20°C° 0 mm 2 m/s 700 mmHg 53%
    04:00 +20°C° 0 mm 2 m/s 700 mmHg 54%
    05:00 +19°C° 0 mm 3 m/s 700 mmHg 56%
    06:00 +19°C° 0 mm 3 m/s 700 mmHg 57%
    07:00 +21°C° 0 mm 3 m/s 701 mmHg 52%
    08:00 +23°C° 0 mm 4 m/s 702 mmHg 47%
    09:00 +26°C° 0 mm 4 m/s 702 mmHg 41%
    10:00 +28°C° 0 mm 4 m/s 702 mmHg 36%
    11:00 +29°C° 0 mm 3 m/s 703 mmHg 31%
    12:00 +31°C° 0 mm 3 m/s 703 mmHg 26%
    13:00 +33°C° 0 mm 3 m/s 702 mmHg 25%
    14:00 +32°C° 0 mm 2 m/s 701 mmHg 23%
    15:00 +32°C° 0 mm 2 m/s 701 mmHg 21%
    16:00 +31°C° 0 mm 2 m/s 701 mmHg 24%
    17:00 +29°C° 0 mm 2 m/s 700 mmHg 28%
    18:00 +27°C° 0 mm 2 m/s 700 mmHg 31%
    19:00 +26°C° 0 mm 2 m/s 701 mmHg 33%
    20:00 +25°C° 0 mm 2 m/s 701 mmHg 36%
    21:00 +24°C° 0 mm 2 m/s 701 mmHg 38%
    22:00 +24°C° 0 mm 3 m/s 701 mmHg 40%
    23:00 +24°C° 0 mm 3 m/s 701 mmHg 42%
    Mostrar mais